7 * 24
多渠道服务支持
STARLINK-35852是由美国于2025年12月4日发射的星链系列低轨互联网通信卫星,隶属于SpaceX公司的星链卫星互联网项目,该卫星承担着为全球偏远、欠发达地区以及高速移动场景提供高速低延迟宽带网络服务的任务,进一步扩展了星链系统的全球覆盖范围与服务容量。
美国
(US)
| 数据来源 | 国际轨道数据 |
| 星历时间: | 2026-09-11T07:51:24+0800 21小时前 查看轨道信息 |
| 半长轴: | 6840.832km |
| 偏心率: | 0.0000682 |
| 轨道倾角: | 53.157° |
| 近地点辐角 | 39.172° |
| 升交点赤经 | 240.007° |
| 平近点角 | 320.933° |
| 近地点: | 462.228km |
| 远地点: | 463.162km |
| 周期: | 93.848分钟 |
| 每日圈数: | 15.34403 |